Location: Ida Center
(41.8662°N, 83.5713°W)
Time: 20:46:14
(UTC+00:00)

Cosmos 1697 Rocket - Pass Details

Date: 17 November 2019
Orbit: 834 x 842 km, 71.0° (Epoch: 14 December)

Event Time Altitude Azimuth Distance (km) Brightness Sun altitude
Rises 23:44:42 0° 212° (SSW) 3,384 6.5 -17.2°
Reaches altitude 10° 23:47:10 10° 215° (SW) 2,452 5.7 -17.7°
Maximum altitude 23:52:45 63° 297° (WNW) 933 3.1 -18.7°
Drops below altitude 10° 23:58:22 10° 18° (NNE) 2,464 4.9 -19.7°
Enters shadow 23:58:36 - 19° (NNE) 2,554 4.9 -19.8°
